Trinidad, CO

3:03 PM MDT on March 30, 2017 (GMT -0600)
Stokes

Weather History for KTAD - February, 2014

Change the Weather History Date:

Tuesday, February 25, 2014

  Actual Average Record
Temperature  
Mean Temperature 41 °F 37 °F  
Max Temperature 68 °F 52 °F 78 °F (1986)
Min Temperature 13 °F 22 °F -9 °F (1960)
Degree Days  
Heating Degree Days 24 28  
Month to date heating degree days 772 760  
Since 1 July heating degree days 3930 4042  
Cooling Degree Days 0 0  
Month to date cooling degree days 0 0  
Year to date cooling degree days 0 0  
Moisture  
Dew Point 15 °F    
Average Humidity 51    
Maximum Humidity 92    
Minimum Humidity 9    
Precipitation  
Precipitation T in 0.02 in 0.63 in (1977)
Month to date precipitation T 0.42  
Year to date precipitation 0.09 0.82  
Sea Level Pressure  
Sea Level Pressure 30.10 in    
Wind  
Wind Speed 9 mph (NE)    
Max Wind Speed 35 mph    
Max Gust Speed 45 mph    
Visibility 6 miles    
Events Snow    
T = Trace of Precipitation, MM = Missing Value Source: NWS Daily Summary

Daily Weather History Graph

Daily Weather History Graph

Search for Another Location

Airport or City:

Trip Planner

Search our weather history database for the weather conditions in past years. The results will help you decide how hot, cold, wet, or windy it might be!

Date:

Astronomy

Feb. 25, 2014 Rise Set
Actual Time 6:33 AM MST 5:47 PM MST
Civil Twilight 6:07 AM MST 6:13 PM MST
Nautical Twilight 5:37 AM MST 6:44 PM MST
Astronomical Twilight 5:07 AM MST 7:14 PM MST
Moon 3:27 AM MST (2/25) 1:59 PM MST (2/25)
Length of Visible Light 12h 06m
Length of Day
11h 13m
Waning Crescent, 17% of the Moon is Illuminated
Feb 25
Waning Crescent
Mar 1
New
Mar 8
First Quarter
Mar 16
Full
Mar 23
Last Quarter

Hourly Weather History & Observations

Time (MST) Temp. Windchill Dew Point Humidity Pressure Visibility Wind Dir Wind Speed Gust Speed Precip Events Conditions
12:54 AM 23.0 °F 14.7 °F 18.0 °F 81% 30.14 in 9.0 mi NE 6.9 mph - N/A   Overcast
1:54 AM 21.9 °F 14.5 °F 18.0 °F 85% 30.10 in 8.0 mi ENE 5.8 mph - N/A   Overcast
2:54 AM 21.9 °F 15.7 °F 19.0 °F 89% 30.06 in 6.0 mi East 4.6 mph - N/A   Overcast
3:54 AM 21.9 °F 15.7 °F 19.0 °F 89% 30.02 in 8.0 mi East 4.6 mph - N/A   Overcast
4:24 AM 23.0 °F 17.0 °F 19.0 °F 85% 30.07 in 9.0 mi East 4.6 mph - N/A   Overcast
4:54 AM 23.0 °F 17.0 °F 19.0 °F 85% 30.00 in 8.0 mi ESE 4.6 mph - N/A   Overcast
5:08 AM 23.0 °F 17.0 °F 19.0 °F 85% 30.06 in 8.0 mi ESE 4.6 mph - N/A   Overcast
5:54 AM 21.9 °F 12.5 °F 18.0 °F 85% 30.01 in 8.0 mi SE 8.1 mph - N/A   Overcast
6:54 AM 19.9 °F 13.4 °F 17.1 °F 89% 30.01 in 6.0 mi SSE 4.6 mph - N/A   Overcast
7:22 AM 21.0 °F 14.6 °F 19.0 °F 92% 30.01 in 5.0 mi SSE 4.6 mph - N/A   Scattered Clouds
7:54 AM 23.0 °F - 19.0 °F 85% 30.02 in 6.0 mi Calm Calm - N/A   Clear
8:54 AM 28.9 °F 23.9 °F 19.9 °F 69% 30.04 in 10.0 mi SSE 4.6 mph - N/A   Clear
9:54 AM 39.0 °F - 21.0 °F 49% 29.99 in 10.0 mi Calm Calm - N/A   Clear
10:54 AM 53.1 °F - 19.9 °F 27% 29.91 in 10.0 mi ENE 4.6 mph - N/A   Clear
11:54 AM 63.0 °F - 10.0 °F 13% 29.84 in 10.0 mi North - - N/A   Clear
12:54 PM 64.0 °F - 14.0 °F 14% 29.81 in 10.0 mi NE 6.9 mph - N/A   Clear
1:54 PM 66.9 °F - 7.0 °F 10% 29.77 in 10.0 mi North 9.2 mph 19.6 mph N/A   Clear
2:54 PM 63.0 °F - 12.9 °F 14% 29.79 in 4.0 mi NE 32.2 mph 44.9 mph N/A   Haze
2:57 PM 55.9 °F - 19.9 °F 25% 29.86 in 2.5 mi NE 29.9 mph 44.9 mph N/A   Haze
3:09 PM 48.9 °F - 21.0 °F 33% 29.88 in 4.0 mi NNE 29.9 mph 40.3 mph N/A   Haze
3:42 PM 41.0 °F 29.8 °F 19.0 °F 41% 29.92 in 4.0 mi NE 29.9 mph 39.1 mph N/A   Haze
3:54 PM 37.0 °F 24.9 °F 18.0 °F 46% 30.00 in 3.0 mi NNE 27.6 mph 39.1 mph N/A   Haze
4:25 PM 35.1 °F 24.5 °F 17.1 °F 48% 30.04 in 8.0 mi North 18.4 mph - N/A   Scattered Clouds
4:54 PM 30.9 °F 19.4 °F 17.1 °F 57% 30.14 in 8.0 mi NNE 17.3 mph - N/A   Clear
5:46 PM 24.1 °F 11.5 °F 14.0 °F 65% 30.15 in 10.0 mi NE 15.0 mph - N/A   Mostly Cloudy
5:54 PM 24.1 °F 12.5 °F 14.0 °F 65% 30.25 in 10.0 mi NE 12.7 mph - N/A   Mostly Cloudy
6:54 PM 21.0 °F 8.6 °F 12.0 °F 68% 30.33 in 10.0 mi ENE 12.7 mph - N/A   Overcast
7:54 PM 18.0 °F 4.8 °F 9.0 °F 68% 30.38 in 9.0 mi NE 12.7 mph - N/A   Overcast
8:54 PM 15.1 °F 0.5 °F 9.0 °F 77% 30.40 in 6.0 mi NE 13.8 mph - 0.00 in Snow Light Snow
9:34 PM 15.1 °F 4.2 °F 9.0 °F 77% 30.29 in 3.0 mi NNE 8.1 mph - 0.00 in Snow Light Snow
9:47 PM 14.0 °F 5.1 °F 10.0 °F 84% 30.29 in 2.0 mi NE 5.8 mph - 0.00 in Snow Light Snow
9:54 PM 14.0 °F 2.0 °F 10.0 °F 84% 30.38 in 2.0 mi NE 9.2 mph - 0.00 in Snow Light Snow
10:22 PM 14.0 °F 2.9 °F 10.0 °F 84% 30.29 in 1.8 mi NNE 8.1 mph - 0.00 in Snow Light Snow
10:29 PM 14.0 °F 3.9 °F 10.0 °F 84% 30.29 in 1.8 mi NNE 6.9 mph - 0.00 in Snow Light Snow
10:34 PM 14.0 °F 2.0 °F 10.0 °F 84% 30.29 in 2.0 mi NNE 9.2 mph - 0.00 in Snow Light Snow
10:41 PM 12.9 °F 2.6 °F 9.0 °F 84% 30.29 in 3.0 mi NNE 6.9 mph - 0.00 in Snow Light Snow
10:54 PM 12.9 °F 3.8 °F 9.0 °F 84% 30.31 in 4.0 mi NNE 5.8 mph - 0.00 in Snow Light Snow
11:54 PM 12.9 °F - 7.0 °F 77% 30.25 in 9.0 mi Calm Calm - 0.00 in   Overcast